Location: Diebersbach
(48.5163°N, 8.0558°E)
Time: 11:45:10
(UTC+00:00)

SL-16 R/B - Pass Details

Date: 20 June 2021
Orbit: 842 x 847 km, 71.0° (Epoch: 28 July)

Event Time Altitude Azimuth Distance (km) Brightness Sun altitude
Exits shadow 00:19:52 16° 238° (WSW) 2,052 3.8 -17.2°
Maximum altitude 00:24:06 46° 306° (NW) 1,130 3.0 -17.0°
Drops below altitude 10° 00:29:33 10° 19° (NNE) 2,474 6.0 -16.8°
Sets 00:32:07 0° 26° (NNE) 3,412 7.0 -16.7°
